[[{"header":{"parameterUnit":"m.s-1","parameterCategory":1,"la1":30.2991,"la2":30.254,"lo1":-89.0895,"lo2":-89.0444,"dy":0.0017,"dx":0.0017,"nx":28,"ny":28,"refTime":"2024-03-28T03:00:00:Z","depth":0,"parameterNumber":2,"parameterNumberName":"U-component_of_WINDS"},"data":[0,0,0,0,0,0,0,0,0,0,0,0,0,0,0,0,0,0,0,0,0,0,0,0,0,0,0,0,0,0,0,0,0,0,0,0,0,0,0,0,0,0,0,0,0,0,0,0,0,0,0,0,0,0,0,0,0,0,0.1782,0.1781,0,0.1754,0.1754,0.1754,0.1763,0.1763,0.1764,0.1765,0.1734,0.1733,0.1731,0,0,0,0,0,0,0,0,0,0,0,0,0,0.1839,0.1838,0.1782,0.1781,0.1781,0.1755,0.1754,0.1754,0.1763,0.1764,0.1764,0.1765,0.1735,0.1733,0.1731,0,0,0,0,0,0,0,0,0,0,0,0,0,0.1813,0.1838,0.1782,0.1782,0.1782,0.1755,0.1754,0.1754,0.1763,0.1764,0.1764,0.1765,0.1735,0.1733,0.1731,0.1701,0,0,0.1725,0.1724,0,0,0,0,0,0,0,0,0.1815,0.1811,0.1783,0.1782,0.1782,0.1763,0.1763,0.1736,0.1762,0.177,0.1765,0.1766,0.1743,0.174,0.1733,0.1699,0.1698,0.1725,0.1723,0.1723,0.1722,0,0,0,0,0,0,0,0.1816,0.1812,0.1771,0.1782,0.1782,0.1783,0.1781,0.1758,0.1752,0.1769,0.177,0.1767,0.1743,0.1735,0.1732,0.1697,0.1725,0.1723,0.1722,0.1721,0.1637,0.1636,0,0,0,0,0,0,0.1819,0.1814,0.1772,0.177,0.1801,0.1782,0.1779,0.1768,0.1752,0.175,0.1766,0.1767,0.1738,0.1735,0.1731,0.1694,0.1723,0.1721,0.1719,0.1638,0.1637,0.1636,0,0,0,0,0,0,0.182,0.1815,0.1773,0.1792,0.1787,0.178,0.1768,0.1767,0.1759,0.1749,0.1748,0.1759,0.1739,0.1734,0.1708,0.1693,0.172,0.1718,0.1639,0.1638,0.1636,0.162,0,0,0,0,0,0,0.1822,0.1815,0.1804,0.1792,0.1786,0.1751,0.1767,0.1766,0.1756,0.1757,0.1743,0.1741,0.1739,0.1711,0.1706,0.1691,0.1716,0.164,0.1638,0.1637,0.1622,0.1618,0.1615,0,0,0,0,0,0.1824,0.18,0.1803,0.1798,0.1772,0.175,0.1746,0.1745,0.1755,0.1743,0.1737,0.1742,0.1696,0.1709,0.1703,0.1687,0.1641,0.1639,0.1637,0.1623,0.1619,0.1615,0,0,0,0,0,0,0.1809,0.1798,0.1802,0.1774,0.1763,0.1751,0.1736,0.174,0.1725,0.1727,0.1726,0.1722,0.1696,0.1689,0.1703,0.1656,0.167,0.1667,0.1662,0.1657,0.1654,0.1655,0.1715,0,0,0,0,0,0.1803,0.1787,0.1778,0.1754,0.1748,0.1743,0.1734,0.1734,0.1722,0.1717,0.1709,0.1697,0.168,0.1668,0.1652,0.1621,0.1618,0.1607,0.1604,0.1601,0.1598,0.1581,0.1576,0.1628,0.1628,0.1628,0,0,0.1789,0.1781,0.1771,0.1751,0.1742,0.1725,0.1739,0.172,0.1707,0.1714,0.1689,0.1683,0.1669,0.164,0.1627,0.1634,0.1583,0.1598,0.1596,0.1594,0.1578,0.1573,0.1568,0.1627,0.1627,0.1627,0,0,0.1756,0.1749,0.1728,0.1719,0.1707,0.1704,0.1699,0.1687,0.1683,0.1659,0.1663,0.1648,0.1618,0.1608,0.1599,0.1563,0.1567,0.1558,0.1539,0.1523,0.1519,0.1515,0.1501,0.1497,0.1555,0.1555,0.1555,0,0.174,0.1715,0.1716,0.1697,0.1687,0.1694,0.1673,0.1664,0.1647,0.164,0.1648,0.1611,0.1603,0.1572,0.1563,0.1556,0.1549,0.1559,0.1519,0.1516,0.1512,0.1499,0.1494,0.1554,0.1554,0.1554,0.1554,0,0.1696,0.1679,0.1663,0.1647,0.1636,0.1616,0.1613,0.1602,0.1603,0.1599,0.1574,0.1564,0.1546,0.1539,0.154,0.1508,0.1513,0.152,0.1533,0.1506,0.1494,0.1489,0.1552,0.1553,0.1553,0.1553,0,0,0.1651,0.1637,0.1631,0.1624,0.1611,0.1597,0.1577,0.156,0.155,0.1538,0.1521,0.1497,0.1504,0.1494,0.1494,0.1479,0.1451,0.1489,0.1488,0.1481,0.1415,0.1408,0.1402,0.1454,0.1453,0.1452,0.1416,0,0.1615,0.1581,0.1582,0.1549,0.1533,0.154,0.1523,0.1513,0.1509,0.1494,0.1489,0.1472,0.1483,0.1477,0.1463,0.1457,0.1437,0.146,0.1437,0.1436,0.1439,0.1396,0.1389,0.1355,0.1411,0.141,0.1409,0,0.1569,0.1556,0.1523,0.1513,0.1506,0.149,0.1475,0.1461,0.145,0.1448,0.1438,0.144,0.1419,0.1435,0.1406,0.1421,0.1412,0.1408,0.1406,0.1403,0.142,0.139,0.1344,0.1338,0.1402,0.1403,0.1403,0,0.1538,0.1513,0.1489,0.1483,0.1471,0.146,0.1455,0.1444,0.1434,0.1421,0.1415,0.1399,0.139,0.1378,0.1376,0.1387,0.1346,0.1362,0.1343,0.1343,0.1333,0.1334,0.1283,0.1329,0.1329,0.133,0.133,0,0.1497,0.1476,0.1476,0.1461,0.1437,0.1439,0.1415,0.1411,0.1402,0.1386,0.1391,0.1376,0.1375,0.136,0.1358,0.1334,0.133,0.1328,0.1327,0.1326,0.1327,0.1319,0.1321,0.1328,0.1329,0.1329,0.1329,0,0.1458,0.1457,0.1432,0.1423,0.1421,0.1404,0.1396,0.1382,0.1379,0.1359,0.1355,0.135,0.1332,0.133,0.1308,0.1307,0.1278,0.1281,0.1282,0.1282,0.1263,0.1265,0.1205,0.1197,0.125,0.1249,0.1249,0,0.1432,0.1416,0.1406,0.1396,0.139,0.1375,0.1365,0.1366,0.1355,0.1342,0.1329,0.1312,0.1298,0.1269,0.1264,0.1248,0.1249,0.123,0.1246,0.1246,0.1247,0.1248,0.1246,0.1226,0.1225,0.1225,0.1224,0,0.1385,0.1385,0.1371,0.1357,0.1346,0.1335,0.1324,0.1316,0.1315,0.1303,0.1285,0.1275,0.1254,0.1236,0.1221,0.1214,0.1219,0.1219,0.1214,0.1212,0.1213,0.1211,0.1272,0.122,0.1221,0.1221,0.1221,0.1221,0.135,0.1336,0.1327,0.1312,0.1304,0.1295,0.1281,0.1277,0.1263,0.1246,0.1248,0.1228,0.1218,0.1197,0.119,0.1174,0.118,0.1173,0.1171,0.1169,0.1166,0.1217,0.1171,0.1172,0.1172,0.1172,0.1172,0,0.1302,0.1297,0.1283,0.1269,0.1256,0.1264,0.1253,0.1241,0.1224,0.1215,0.1202,0.1181,0.1165,0.1158,0.1142,0.1131,0.1132,0.1126,0.1126,0.1125,0.1162,0.1168,0.1125,0.1125,0.1125,0.1125,0.1125,0.1125,0.1276,0.1253,0.1252,0.1225,0.1221,0.1202,0.1195,0.1186,0.1178,0.1156,0.1142,0.1139,0.113,0.1114,0.1099,0.1098,0.1091,0.1083,0.1083,0.1117,0.1122,0.1126,0.1132,0.1082,0.1082,0.1047,0.1046,0.1046]},{"header":{"parameterUnit":"m.s-1","parameterCategory":1,"la1":30.2991,"la2":30.254,"lo1":-89.0895,"lo2":-89.0444,"dy":0.0017,"dx":0.0017,"nx":28,"ny":28,"refTime":"2024-03-28T03:00:00:Z","depth":0,"parameterNumber":3,"parameterNumberName":"V-component_of_WINDS"},"data":[0,0,0,0,0,0,0,0,0,0,0,0,0,0,0,0,0,0,0,0,0,0,0,0,0,0,0,0,0,0,0,0,0,0,0,0,0,0,0,0,0,0,0,0,0,0,0,0,0,0,0,0,0,0,0,0,0,0,-2.8913,-2.8914,0,-2.9011,-2.9012,-2.9013,-2.8981,-2.8979,-2.8977,-2.8975,-2.9073,-2.9078,-2.9082,0,0,0,0,0,0,0,0,0,0,0,0,0,-2.8699,-2.8703,-2.8913,-2.8914,-2.8916,-2.9011,-2.9012,-2.9013,-2.8981,-2.8979,-2.8976,-2.8974,-2.9072,-2.9077,-2.9083,0,0,0,0,0,0,0,0,0,0,0,0,0,-2.8794,-2.8704,-2.8913,-2.8911,-2.8912,-2.901,-2.9012,-2.9014,-2.8982,-2.8979,-2.8976,-2.8973,-2.907,-2.9077,-2.9083,-2.9189,0,0,-2.9104,-2.9107,0,0,0,0,0,0,0,0,-2.8788,-2.8801,-2.891,-2.8911,-2.8913,-2.8981,-2.8972,-2.9072,-2.8983,-2.8955,-2.8975,-2.8971,-2.9045,-2.9054,-2.9079,-2.9193,-2.9198,-2.9105,-2.9109,-2.9112,-2.9114,0,0,0,0,0,0,0,-2.8782,-2.8797,-2.8952,-2.8912,-2.8913,-2.8905,-2.8915,-2.8991,-2.9016,-2.8957,-2.8955,-2.8967,-2.9045,-2.9072,-2.9081,-2.9199,-2.9105,-2.9111,-2.9115,-2.9118,-2.9407,-2.941,0,0,0,0,0,0,-2.8775,-2.8792,-2.8949,-2.8955,-2.8841,-2.8912,-2.8923,-2.8962,-2.9016,-2.9021,-2.897,-2.8966,-2.9062,-2.9073,-2.9084,-2.9213,-2.9112,-2.9118,-2.9122,-2.9404,-2.9408,-2.9412,0,0,0,0,0,0,-2.877,-2.8789,-2.8945,-2.8873,-2.8892,-2.8919,-2.8963,-2.8965,-2.8993,-2.9025,-2.9029,-2.8993,-2.906,-2.9074,-2.9164,-2.9215,-2.9122,-2.9128,-2.9399,-2.9405,-2.941,-2.9469,0,0,0,0,0,0,-2.8764,-2.8787,-2.8828,-2.8874,-2.8896,-2.9023,-2.8966,-2.897,-2.9005,-2.9,-2.9048,-2.9053,-2.9059,-2.9154,-2.917,-2.9223,-2.9133,-2.9395,-2.9402,-2.9408,-2.9463,-2.9476,-2.9487,0,0,0,0,0,-2.8756,-2.884,-2.883,-2.8849,-2.8947,-2.9026,-2.9038,-2.9043,-2.9009,-2.905,-2.9071,-2.9052,-2.9207,-2.9163,-2.9182,-2.9237,-2.9392,-2.94,-2.9408,-2.9457,-2.9473,-2.9487,0,0,0,0,0,0,-2.8798,-2.8846,-2.8835,-2.8936,-2.8977,-2.902,-2.9072,-2.906,-2.9111,-2.9104,-2.9108,-2.9119,-2.9211,-2.9233,-2.9183,-2.9343,-2.9294,-2.9306,-2.9326,-2.9341,-2.9353,-2.9346,-2.9139,0,0,0,0,0,-2.8819,-2.8879,-2.8918,-2.9003,-2.9024,-2.9045,-2.9079,-2.908,-2.9122,-2.9139,-2.9167,-2.9208,-2.9267,-2.9305,-2.936,-2.9466,-2.9476,-2.9513,-2.9526,-2.9535,-2.9546,-2.9605,-2.9622,-2.9438,-2.9438,-2.9438,0,0,-2.8863,-2.8896,-2.8934,-2.9012,-2.9044,-2.9107,-2.9059,-2.9127,-2.9174,-2.9149,-2.9236,-2.9257,-2.9304,-2.9403,-2.9447,-2.9423,-2.9599,-2.9546,-2.9553,-2.9559,-2.9615,-2.9633,-2.9648,-2.9444,-2.9443,-2.9442,0,0,-2.8975,-2.9006,-2.9081,-2.9115,-2.9164,-2.9177,-2.9196,-2.9241,-2.9255,-2.9342,-2.9325,-2.938,-2.948,-2.9515,-2.9546,-2.9673,-2.9657,-2.9691,-2.9755,-2.9812,-2.9827,-2.984,-2.9886,-2.9903,-2.9701,-2.9701,-2.9701,0,-2.9023,-2.9116,-2.9121,-2.9191,-2.9226,-2.9208,-2.9285,-2.9317,-2.9382,-2.9407,-2.9379,-2.9506,-2.9536,-2.9643,-2.9674,-2.9699,-2.9721,-2.9685,-2.9825,-2.9838,-2.985,-2.9894,-2.9912,-2.9705,-2.9705,-2.9704,-2.9704,0,-2.9174,-2.9239,-2.9294,-2.9359,-2.94,-2.9473,-2.9489,-2.953,-2.9527,-2.9544,-2.9633,-2.9669,-2.9732,-2.9757,-2.9755,-2.9865,-2.9849,-2.9823,-2.9774,-2.9871,-2.9913,-2.993,-2.9711,-2.9709,-2.9708,-2.9707,0,0,-2.9314,-2.9381,-2.9401,-2.9431,-2.9485,-2.9536,-2.9608,-2.9671,-2.9707,-2.9752,-2.9814,-2.99,-2.9877,-2.9912,-2.9913,-2.9964,-3.0064,-2.9932,-2.9933,-2.9956,-3.0189,-3.0208,-3.0228,-3.0054,-3.0057,-3.006,-3.0185,0,-2.9431,-2.9559,-2.9566,-2.9682,-2.9744,-2.9728,-2.9791,-2.9832,-2.9849,-2.9904,-2.9923,-2.9984,-2.9949,-2.997,-3.0019,-3.0041,-3.0111,-3.0032,-3.0111,-3.0114,-3.0101,-3.025,-3.027,-3.0387,-3.0202,-3.0204,-3.0206,0,-2.9584,-2.9637,-2.9759,-2.9807,-2.9832,-2.9889,-2.9948,-3.0,-3.0046,-3.0055,-3.0095,-3.009,-3.0165,-3.0113,-3.0217,-3.0163,-3.0196,-3.0212,-3.0217,-3.0225,-3.0167,-3.0263,-3.0424,-3.0442,-3.0232,-3.023,-3.0228,0,-2.9676,-2.9776,-2.9863,-2.9889,-2.9946,-2.9987,-3.0012,-3.0054,-3.0092,-3.0144,-3.0168,-3.0227,-3.026,-3.0306,-3.0317,-3.0278,-3.0421,-3.037,-3.0431,-3.0431,-3.0462,-3.046,-3.0632,-3.0482,-3.0482,-3.0482,-3.0481,0,-2.9807,-2.9883,-2.9905,-2.9959,-3.0044,-3.0052,-3.0136,-3.0158,-3.0197,-3.0255,-3.0244,-3.0299,-3.031,-3.0366,-3.0375,-3.0461,-3.0475,-3.0485,-3.0487,-3.0487,-3.0486,-3.0508,-3.0501,-3.0486,-3.0485,-3.0484,-3.0483,0,-2.9923,-2.9941,-3.0035,-3.0082,-3.0096,-3.0156,-3.0196,-3.0248,-3.0265,-3.0338,-3.0356,-3.0382,-3.0449,-3.0465,-3.0543,-3.055,-3.0651,-3.0644,-3.0636,-3.0636,-3.0697,-3.0691,-3.089,-3.0917,-3.0749,-3.075,-3.0751,0,-3.0005,-3.0064,-3.0118,-3.0156,-3.0184,-3.0246,-3.0285,-3.0295,-3.0336,-3.0393,-3.0438,-3.0504,-3.0557,-3.0665,-3.0691,-3.0751,-3.0747,-3.0812,-3.0756,-3.0754,-3.0749,-3.0746,-3.0752,-3.0823,-3.0825,-3.0826,-3.0828,0,-3.015,-3.0157,-3.0214,-3.0275,-3.0323,-3.0371,-3.0417,-3.0449,-3.0465,-3.0512,-3.0581,-3.0622,-3.0704,-3.0769,-3.0831,-3.0857,-3.0846,-3.0845,-3.0863,-3.0864,-3.0857,-3.0863,-3.0667,-3.0841,-3.0839,-3.0838,-3.0838,-3.0837,-3.0253,-3.0305,-3.0352,-3.0416,-3.0452,-3.0496,-3.0547,-3.0571,-3.0629,-3.0697,-3.0699,-3.0774,-3.082,-3.0901,-3.0931,-3.099,-3.097,-3.0995,-3.1002,-3.1008,-3.1014,-3.0847,-3.1001,-3.1001,-3.1,-3.1,-3.1,0,-3.0399,-3.0428,-3.0488,-3.0553,-3.0604,-3.059,-3.0641,-3.0684,-3.0751,-3.0795,-3.0848,-3.0927,-3.0992,-3.1023,-3.1087,-3.1128,-3.1125,-3.1145,-3.1142,-3.1149,-3.1028,-3.1007,-3.1147,-3.1147,-3.1147,-3.1147,-3.1147,-3.1147,-3.0481,-3.0568,-3.0581,-3.0687,-3.0716,-3.079,-3.082,-3.0861,-3.0896,-3.0986,-3.104,-3.106,-3.11,-3.1167,-3.1225,-3.1233,-3.1257,-3.128,-3.1285,-3.1172,-3.1157,-3.1143,-3.1123,-3.1285,-3.1285,-3.1401,-3.1403,-3.1403]}]]